Location: River Brede
(50.9167°N, 0.7167°E)
Time: 03:25:16
(UTC+00:00)

Daily predictions for brighter satellites

Satellite Brightness Start Highest point End
(mag) Time Altitude Azimuth Time Altitude Azimuth Time Altitude Azimuth
USA 215 4.1 03:21:07 10° E 03:25:43 46° ENE 03:25:43 46° ENE
Cosmos 1943 Rocket 3.0 04:06:38 44° SE 04:07:17 46° ESE 04:12:41 10° NE
CZ-2C R/B 3.9 04:05:24 10° SE 04:10:24 38° ENE 04:13:24 21° N
CENTAUR R/B 2.9 04:16:08 51° SSE 04:17:16 59° SE 04:24:16 10° NE
Cosmos 2297 4.1 04:21:07 51° SSE 04:22:08 59° ESE 04:27:47 10° NE
NOSS 3-2 (A) 3.3 04:27:50 77° SSE 04:28:08 79° SE 04:34:45 10° NE
Cosmos 2278 Rocket 3.6 04:33:50 27° N 04:33:50 27° N 04:36:41 10° NNE
Envisat 4.3 04:29:58 10° NNE 04:34:46 39° E 04:39:31 10° SSE
NOSS 3-2 (C) 3.9 04:33:35 35° S 04:35:48 56° SE 04:42:08 10° NE
SKYMED 2 4.3 04:32:50 10° SE 04:37:01 51° ENE 04:37:11 50° ENE
Meteor 2-3 Rocket 3.8 04:37:35 10° S 04:43:14 79° E 04:49:00 10° NNE
Cosmos 968 Rocket 3.9 04:42:39 18° S 04:46:21 60° ESE 04:51:24 10° NNE
Landsat 5 4.4 04:42:19 10° SE 04:46:41 51° ENE 04:48:26 32° NNE
Cosmos 921 Rocket 3.4 04:50:35 58° SSE 04:50:35 58° SSE 04:54:11 10° SSE
DNEPR-1 R/B 3.9 04:53:14 66° N 04:53:46 74° NE 04:59:10 10° SE
Meteor 1-26 Rocket 4.2 04:53:50 43° NNW 04:55:50 73° W 05:01:37 10° S
Cosmos 1812 3.3 04:56:57 54° SE 04:56:57 54° SE 05:00:07 10° SSE
H-2A R/B 4.2 04:54:04 10° ESE 04:57:32 24° ENE 05:01:03 10° N
Cosmos 1151 Rocket 3.2 05:01:36 39° N 05:03:09 72° E 05:07:30 10° SSE
USA 238 DEB 3.6 05:00:10 29° SW 05:03:47 87° SE 05:10:45 10° NE
USA 238 3.6 05:00:13 29° SW 05:03:53 86° SE 05:10:51 10° NE
Cosmos 2344 3.5 05:03:34 38° WSW 05:06:38 69° NW 05:14:49 10° NE
Cosmos 1766 Rocket 4.4 05:03:18 10° SSE 05:07:29 49° E 05:11:40 10° NNE
USA 215 3.2 05:04:05 10° SE 05:10:34 68° SW 05:13:03 40° WNW
Kosmos-917 3.6 05:12:30 85° WSW 05:12:34 88° NW 05:17:45 10° NE
Meteor 1-31 Rocket 3.2 05:09:28 10° NNE 05:13:21 62° ESE 05:17:12 10° S
Cosmos 2279 Rocket 4.0 05:07:26 10° N 05:13:40 82° E 05:19:52 10° SSE
Cosmos 2297 Rocket 4.3 05:09:40 10° NNW 05:13:42 19° NNE 05:17:44 10° E
Cosmos 1328 Rocket 3.8 05:12:41 19° N 05:15:49 70° ENE 05:20:09 10° SSE
SJ-12 3.8 05:14:37 10° NNE 05:18:47 86° WNW 05:22:55 10° SSW
FALCON 9 DEB 3.3 05:21:07 65° SSE 05:21:09 65° SSE 05:24:31 10° ENE
Cosmos 2369 Rocket 2.3 05:16:10 10° SSW 05:21:44 76° ESE 05:27:22 10° NNE
Cosmos 1862 3.6 05:19:48 10° S 05:23:42 67° E 05:27:39 10° NNE
COSMO-SKYMED 1 2.6 05:20:49 10° S 05:25:05 57° W 05:25:48 50° WNW
H-2A R/B 2.5 05:23:04 10° N 05:26:46 69° WNW 05:30:29 10° SSW
Cosmos 1634 Rocket 4.0 05:22:33 10° NNW 05:28:41 55° W 05:34:43 10° SSW
Cosmos 836 Rocket 4.5 05:27:51 34° NW 05:30:02 60° WSW 05:35:10 10° S
Lacrosse 4 Rocket 4.0 05:34:06 10° N 05:35:51 12° NNE 05:37:37 10° NE
CZ-4B R/B 4.3 05:32:44 10° NNE 05:36:04 35° E 05:39:22 10° SSE
Tsikada Rocket 4.3 05:33:15 10° SW 05:39:07 43° WNW 05:45:08 10° N
CZ-4B R/B 3.6 05:38:20 10° ESE 05:41:06 25° ENE 05:43:51 10° N
MOS 1-B Rocket 4.4 05:35:46 10° SSW 05:41:32 38° W 05:44:44 22° NW
YAOGAN 6 3.9 05:38:19 10° N 05:40:14 26° NNW 05:40:14 26° NNW
Cosmos 783 Rocket 4.5 05:37:36 16° NNW 05:41:51 83° ENE 05:47:03 10° SSE
Cosmos 1408 Rocket 4.3 05:38:39 10° S 05:42:50 54° E 05:47:04 10° NNE
Gblst 52 Del rocket 4.5 05:41:33 25° WSW 05:45:21 90° SSE 05:52:25 10° E
Cosmos 1656 Rocket 3.6 05:39:59 10° SSW 05:45:24 83° ESE 05:50:53 10° NNE
Cosmos 1503 Rocket 4.3 05:40:43 10° SSW 05:45:56 70° ESE 05:51:17 10° NNE
CZ-4C R/B 2.8 05:42:57 10° S 05:46:01 49° W 05:46:01 49° W
DMSP B5D2-2 4.0 05:41:18 10° SSE 05:46:31 90° WSW 05:51:46 10° NNW
Cosmos 2227 Rocket 4.1 05:44:49 10° NNW 05:49:16 23° NE 05:53:40 10° E
CZ-2C R/B 3.1 05:45:32 10° SSW 05:50:40 40° W 05:54:54 14° NNW
Cosmos 1943 Rocket 2.6 05:48:15 23° WSW 05:51:10 39° NW 05:56:28 10° NNE
Cosmos 1486 Rocket 3.9 05:48:20 10° SW 05:53:36 67° WNW 05:58:53 10° NNE
Cosmos 1515 Rocket 3.4 05:51:44 10° NNW 05:56:09 84° W 06:00:30 10° S
SL-8 R/B 4.4 05:54:21 24° W 05:56:48 43° SSW 06:01:19 10° SE
Meteor 2-15 4.3 05:51:17 10° NNW 05:57:21 74° W 06:03:22 10° S
FALCON 9 DEB 2.7 05:56:51 46° WNW 05:57:28 62° NNW 06:00:21 10° ENE
Cosmos 2180 Rocket 4.4 05:52:50 10° NNW 05:58:58 64° W 06:05:00 10° S
Meteor 1-27 Rocket 3.8 05:53:26 10° NNW 05:59:05 85° ENE 06:04:49 10° SSE
Iridium 2 4.4 05:59:34 10° SW 06:02:58 31° WNW 06:06:23 10° NNW
COSMOS 2487 3.7 05:59:58 10° N 06:03:08 37° ENE 06:06:17 10° SE
Cosmos 773 Rocket 3.9 05:58:39 12° NNW 06:03:31 76° WSW 06:08:41 10° SSE
FALCON 9 DEB 2.8 06:03:16 38° WNW 06:04:04 55° N 06:06:54 10° ENE
Cosmos 2084 Rocket 4.5 06:04:32 22° NW 06:05:18 23° NNW 06:08:31 10° NNE
FALCON 9 DEB 2.9 06:05:16 35° WNW 06:06:08 54° N 06:08:57 10° ENE
Cosmos 2297 4.4 06:03:08 18° W 06:06:40 33° NW 06:11:49 10° NNE
SJ 16-02 2.7 06:03:10 10° S 06:07:18 43° ESE 06:11:27 10° NE
NOAA 11 4.1 06:02:09 10° NNE 06:07:39 79° WNW 06:13:07 10° SSW
CENTAUR R/B 3.0 06:03:21 17° W 06:08:14 48° NNW 06:15:34 10° NE
Alouette 2 Rocket 3.5 06:05:31 10° NNW 06:09:39 69° ENE 06:13:10 10° SSE
NOAA 12 4.2 06:07:31 10° NNE 06:12:50 79° ESE 06:18:05 10° SSW
Envisat 3.5 06:09:10 10° N 06:13:45 35° WNW 06:18:18 10° SW
Meteor 2-19 Rocket 4.4 06:07:50 10° S 06:13:55 86° W 06:20:01 10° N
Cosmos 1340 Rocket 3.4 06:11:43 10° S 06:15:36 59° E 06:19:32 10° NNE
SL-27 R/B 2.5 06:14:05 16° NNW 06:16:49 59° WSW 06:20:19 10° S
Cosmos 2278 Rocket 3.9 06:15:42 13° NW 06:17:07 14° NNW 06:20:01 10° N
Cosmos 1500 Rocket 3.8 06:14:36 10° S 06:19:03 74° E 06:23:32 10° NNE
Cosmos 1939 Rocket 2.9 06:15:26 10° NNE 06:19:25 80° ESE 06:23:19 10° S
NOSS 3-2 (A) 4.1 06:15:14 16° W 06:19:37 38° NNW 06:26:09 10° NE
FALCON 9 DEB 2.9 06:21:30 22° WNW 06:23:09 55° N 06:26:00 10° ENE
Cosmos 2098 Rocket 4.0 06:20:21 10° SW 06:23:57 28° WNW 06:28:20 10° N
Aureole 1 Rocket 4.5 06:26:23 11° NNW 06:26:23 11° NNW 06:26:47 10° NNW
NOSS 3-2 (C) 3.8 06:21:14 10° WSW 06:26:53 46° NNW 06:33:33 10° NE
Cosmos 968 Rocket 4.4 06:24:13 10° WSW 06:28:32 26° NW 06:32:52 10° N
Okean O Rocket 4.2 06:26:01 10° NE 06:29:41 25° E 06:33:18 10° SSE
Cosmos 1805 Rocket 4.3 06:26:24 10° S 06:30:42 58° E 06:35:01 10° NNE
Okean 3 Rocket 4.4 06:28:28 10° SW 06:32:30 31° WNW 06:36:34 10° N
Sich 1 4.1 06:28:26 10° SSE 06:32:34 48° E 06:36:41 10° NNE
H-2A R/B 2.4 06:29:08 10° S 06:33:14 46° W 06:37:28 10° NNW
ATLAS 3B R/B 3.7 06:29:04 10° SSW 06:35:20 51° ESE 06:41:56 10° NE
ADEOS 3.9 06:32:57 10° N 06:37:52 42° WNW 06:42:45 10° SW
Cosmos 158 Rocket 3.9 06:33:47 10° NNW 06:38:54 82° WSW 06:44:07 10° SSE
ATLAS 5 CENTAUR R/B 2.6 06:35:22 10° SSW 06:39:04 47° SE 06:43:17 10° NE
Cosmos 1500 4.4 06:35:33 10° SSE 06:39:12 45° E 06:42:51 10° NNE
Cosmos 1515 3.7 06:40:54 10° NNW 06:44:39 59° W 06:48:23 10° S
Meteor PRIRODA 4.3 06:42:03 10° N 06:45:20 33° WNW 06:48:36 10° SW
Okean 1 3.4 06:41:39 10° N 06:45:38 79° E 06:49:35 10° SSE
Cosmos 1354 Rocket 4.2 06:41:03 10° SW 06:46:11 51° WNW 06:51:24 10° NNE
CZ-2C R/B 3.2 06:41:40 10° N 06:46:17 46° WNW 06:51:02 10° SW
Meteor 1-31 Rocket 4.3 06:44:51 10° NNW 06:47:17 16° WNW 06:49:43 10° W
USA 238 DEB 4.3 06:49:17 10° W 06:55:29 38° NNW 07:02:03 10° NE
USA 238 4.3 06:49:23 10° W 06:55:34 38° NNW 07:02:09 10° NE
OPS 6432 4.2 06:54:53 10° NW 06:57:49 80° NE 07:01:07 10° SE
FALCON 9 DEB 3.2 06:54:37 10° W 06:57:59 59° N 07:01:22 10° ENE
Cosmos 2297 Rocket 2.6 06:53:12 10° NNW 06:58:52 67° ENE 07:04:30 10° SE
SMAP 3.1 06:54:57 10° N 06:59:32 57° WNW 07:04:06 10° SSW
FengYun 1-2 T 4.3 06:57:21 10° N 07:02:43 55° WNW 07:08:03 10° SW
Cosmos 1809 Rocket 4.5 06:57:34 10° SSW 07:03:45 79° W 07:09:57 10° N
CZ-4 R/B 3.8 07:02:14 10° NE 07:05:32 25° E 07:08:48 10° SSE
Cosmos 2369 Rocket 3.1 07:01:39 10° W 07:06:22 27° NW 07:11:06 10° NNE
